STARLINK-35442, 66319

Orbit data source: Space-Track

STARLINK-35442, 66319 is a payload satellite owned by SpaceX/Seattle (US) in LEO that was launched on Thu, 06 Nov 2025 UTC via an FALCON 9 launch vehicle from the Air Force Eastern Test Range (AFETR). Payload-class satellites include a variety of spacecraft equipped with specific instruments for various scientific and technological missions. These include communications satellites like Starlink; space stations such as the ISS; scientific satellites like the Hubble; Earth observation satellites from companies like Planet Labs, Umbra, and HawkEye 360; GPS; miniature CubeSats for education and research; and military/defense satellites.

Loading next visibility...
Identifier
66319, 2025-253A
Orbit
LEO
Country
Flag of USUS
Related business
Manufacturer
SpaceX/Seattle
Mission
Operational Commercial Communications
Bus & Motor
STARLINK V2MO, Unknown motor
Mass
575 kg wet, ~530 kg dry
Launch date (UTC)
2025-11-06 (7 months ago)
Launch vehicle
FALCON 9
Launch site
Air Force Eastern Test Range (AFETR)
Object type
Payload
Rocket body
Debris
Shape & HBR
Box + 2 Pan, 17.7 m
Radar Cross Section
36.964 m², Large (>1 m²)

Expand to show TLE details & history
Last TLE update: 3 days ago

TLE from 3 days ago
0 STARLINK-35442
1 66319U 25253A   26170.51548717  .00013207  00000-0  48854-3 0  9991
2 66319  43.0023 357.7842 0001323 272.1069  87.9631 15.27584753 35819
Epoch: 2026-06-19T12:22Z
TLE epoch observation values (Epoch: 2026-06-19T12:22:18.091Z)
Latitude
-0.00003°
Longitude
-95.53456°
Altitude
482.778 km
Speed
7.626 km/s
True Right ascension
23h 51m 08s
True Declination
0° 00' 00"
Sunlit
Object was in daylight at epoch
Visualization orbit readout
Latitude
Unknown
Longitude
Unknown
Altitude
Unknown
Speed
Unknown
Apparent Right ascension
Unknown
Apparent Declination
Unknown
Sunlit
N/A
Visualization observer readout
Local Sidereal Time
20:01:38
Azimuth
Unknown
Elevation
Unknown
Doppler factor
Unknown
Orbital elements
Apogee altitude
485.888 km
Perigee altitude
484.072 km
Semi-major axis
6,863.117 km
Eccentricity
0.00013
Inclination
43.0023°
RAAN
357.7842°
Arg. of periapsis
272.1069°
True anomaly
87.97825°
Mean anomaly
87.9631°
Eccentric anomaly
87.97068°
Mean motion
3.81734 °/min
Orbital period
94.31 mins
BSTAR
0.00048854
Loading maneuver chart data...
Computing Atmospheric mass density...
Loading historical data...
Loading historical data...
Loading historical data...
Loading historical data...
Loading historical data...
Loading historical data...
Loading historical data...

Documentation

Showing up to 5 results
|